TimeEST,TemperatureF,Dew PointF,Humidity,Sea Level PressureIn,VisibilityMPH,Wind Direction,Wind SpeedMPH,Gust SpeedMPH,PrecipitationIn,Events,Conditions,WindDirDegrees,DateUTC
12:14 AM,35.6,28.4,75,30.48,7.0,Calm,Calm,-,N/A,,Clear,0,2012-11-17 05:14:00
12:35 AM,35.6,28.4,75,30.49,7.0,Calm,Calm,-,N/A,,Clear,0,2012-11-17 05:35:00
12:54 AM,35.6,28.4,75,30.49,10.0,Calm,Calm,-,N/A,,Clear,0,2012-11-17 05:54:00
1:15 AM,35.6,28.4,75,30.49,10.0,Calm,Calm,-,N/A,,Clear,0,2012-11-17 06:15:00
1:35 AM,33.8,26.6,75,30.49,10.0,Calm,Calm,-,N/A,,Clear,0,2012-11-17 06:35:00
1:54 AM,33.8,26.6,75,30.50,10.0,Calm,Calm,-,N/A,,Clear,0,2012-11-17 06:54:00
2:15 AM,32.0,26.6,80,30.50,10.0,Calm,Calm,-,N/A,,Clear,0,2012-11-17 07:15:00
2:34 AM,30.2,24.8,80,30.50,7.0,Calm,Calm,-,N/A,,Clear,0,2012-11-17 07:34:00
2:55 AM,28.4,24.8,86,30.51,7.0,Calm,Calm,-,N/A,,Clear,0,2012-11-17 07:55:00
3:14 AM,28.4,26.6,93,30.51,5.0,Calm,Calm,-,N/A,,Clear,0,2012-11-17 08:14:00
3:35 AM,28.4,24.8,86,30.51,7.0,Calm,Calm,-,N/A,,Clear,0,2012-11-17 08:35:00
3:55 AM,28.4,26.6,93,30.51,3.0,Calm,Calm,-,N/A,,Clear,0,2012-11-17 08:55:00
4:14 AM,26.6,26.6,100,30.51,3.0,Calm,Calm,-,N/A,,Clear,0,2012-11-17 09:14:00
4:35 AM,28.4,26.6,93,30.51,5.0,Calm,Calm,-,N/A,,Clear,0,2012-11-17 09:35:00
4:55 AM,28.4,24.8,86,30.52,7.0,Calm,Calm,-,N/A,,Clear,0,2012-11-17 09:55:00
5:14 AM,28.4,24.8,86,30.52,7.0,Calm,Calm,-,N/A,,Clear,0,2012-11-17 10:14:00
5:35 AM,26.6,24.8,93,30.53,7.0,Calm,Calm,-,N/A,,Clear,0,2012-11-17 10:35:00
5:55 AM,26.6,24.8,93,30.53,7.0,Calm,Calm,-,N/A,,Clear,0,2012-11-17 10:55:00
6:15 AM,26.6,26.6,100,30.54,4.0,Calm,Calm,-,N/A,,Clear,0,2012-11-17 11:15:00
6:35 AM,28.4,26.6,93,30.54,4.0,Calm,Calm,-,N/A,,Clear,0,2012-11-17 11:35:00
6:54 AM,26.6,24.8,93,30.55,4.0,NNE,3.5,-,N/A,,Clear,20,2012-11-17 11:54:00
7:15 AM,28.4,26.6,93,30.55,3.0,East,4.6,-,N/A,,Clear,100,2012-11-17 12:15:00
7:35 AM,26.6,24.8,93,30.55,5.0,SE,3.5,-,N/A,,Clear,130,2012-11-17 12:35:00
7:54 AM,26.6,24.8,93,30.55,3.0,East,3.5,-,N/A,,Clear,90,2012-11-17 12:54:00
8:15 AM,28.4,26.6,93,30.55,5.0,Calm,Calm,-,N/A,,Clear,0,2012-11-17 13:15:00
8:35 AM,32.0,28.4,87,30.55,5.0,SE,3.5,-,N/A,,Clear,140,2012-11-17 13:35:00
8:54 AM,33.8,30.2,87,30.56,4.0,Calm,Calm,-,N/A,,Clear,0,2012-11-17 13:54:00
9:15 AM,37.4,30.2,75,30.56,7.0,Calm,Calm,-,N/A,,Clear,0,2012-11-17 14:15:00
9:35 AM,39.2,32.0,75,30.56,5.0,Calm,Calm,-,N/A,,Haze,0,2012-11-17 14:35:00
9:54 AM,42.8,32.0,66,30.56,10.0,SSE,4.6,-,N/A,,Clear,150,2012-11-17 14:54:00
10:15 AM,42.8,30.2,61,30.57,10.0,SE,5.8,-,N/A,,Clear,140,2012-11-17 15:15:00
10:35 AM,44.6,28.4,53,30.57,10.0,SSE,8.1,-,N/A,,Clear,150,2012-11-17 15:35:00
10:54 AM,46.4,30.2,53,30.57,10.0,SE,5.8,-,N/A,,Clear,140,2012-11-17 15:54:00
11:15 AM,46.4,30.2,53,30.56,10.0,SSE,5.8,-,N/A,,Clear,150,2012-11-17 16:15:00
11:35 AM,48.2,28.4,46,30.56,10.0,South,3.5,-,N/A,,Clear,170,2012-11-17 16:35:00
11:54 AM,48.2,28.4,46,30.55,10.0,South,8.1,-,N/A,,Clear,170,2012-11-17 16:54:00
12:15 PM,50.0,28.4,43,30.54,10.0,South,6.9,-,N/A,,Clear,180,2012-11-17 17:15:00
12:35 PM,51.8,28.4,41,30.53,10.0,South,5.8,-,N/A,,Clear,190,2012-11-17 17:35:00
12:55 PM,51.8,28.4,41,30.53,10.0,South,5.8,-,N/A,,Clear,190,2012-11-17 17:55:00
1:15 PM,51.8,28.4,41,30.52,10.0,Calm,Calm,-,N/A,,Clear,0,2012-11-17 18:15:00
1:34 PM,53.6,30.2,41,30.52,10.0,SSE,5.8,-,N/A,,Clear,160,2012-11-17 18:34:00
1:55 PM,53.6,30.2,41,30.52,10.0,Calm,Calm,-,N/A,,Clear,0,2012-11-17 18:55:00
2:15 PM,53.6,28.4,38,30.51,10.0,South,4.6,-,N/A,,Clear,180,2012-11-17 19:15:00
2:34 PM,53.6,28.4,38,30.51,10.0,South,5.8,-,N/A,,Clear,180,2012-11-17 19:34:00
2:55 PM,53.6,28.4,38,30.51,10.0,SSW,4.6,-,N/A,,Clear,210,2012-11-17 19:55:00
3:15 PM,53.6,28.4,38,30.50,10.0,SSW,3.5,-,N/A,,Clear,200,2012-11-17 20:15:00
3:34 PM,53.6,28.4,38,30.50,10.0,South,4.6,-,N/A,,Clear,170,2012-11-17 20:34:00
3:55 PM,53.6,28.4,38,30.50,10.0,Calm,Calm,-,N/A,,Clear,0,2012-11-17 20:55:00
4:15 PM,53.6,28.4,38,30.50,10.0,Calm,Calm,-,N/A,,Clear,0,2012-11-17 21:15:00
4:35 PM,51.8,28.4,41,30.50,10.0,ESE,5.8,-,N/A,,Clear,120,2012-11-17 21:35:00
4:55 PM,50.0,28.4,43,30.50,10.0,ESE,4.6,-,N/A,,Clear,120,2012-11-17 21:55:00
5:14 PM,48.2,26.6,43,30.50,10.0,ESE,3.5,-,N/A,,Clear,110,2012-11-17 22:14:00
5:35 PM,46.4,26.6,46,30.50,10.0,East,3.5,-,N/A,,Clear,100,2012-11-17 22:35:00
5:55 PM,44.6,26.6,49,30.50,10.0,East,4.6,-,N/A,,Clear,100,2012-11-17 22:55:00
6:14 PM,42.8,26.6,53,30.50,10.0,East,4.6,-,N/A,,Clear,100,2012-11-17 23:14:00
6:35 PM,41.0,26.6,57,30.50,10.0,East,4.6,-,N/A,,Clear,100,2012-11-17 23:35:00
6:54 PM,42.8,26.6,53,30.50,10.0,East,4.6,-,N/A,,Clear,100,2012-11-17 23:54:00
7:15 PM,42.8,26.6,53,30.50,10.0,East,5.8,-,N/A,,Clear,100,2012-11-18 00:15:00
7:35 PM,41.0,26.6,57,30.50,10.0,ESE,5.8,-,N/A,,Clear,110,2012-11-18 00:35:00
7:55 PM,39.2,28.4,65,30.50,10.0,ESE,5.8,-,N/A,,Clear,110,2012-11-18 00:55:00
8:14 PM,39.2,28.4,65,30.50,10.0,East,4.6,-,N/A,,Clear,100,2012-11-18 01:14:00
8:35 PM,39.2,28.4,65,30.50,10.0,East,4.6,-,N/A,,Clear,100,2012-11-18 01:35:00
8:55 PM,39.2,28.4,65,30.50,10.0,ESE,5.8,-,N/A,,Clear,110,2012-11-18 01:55:00
9:15 PM,39.2,28.4,65,30.51,10.0,ESE,5.8,-,N/A,,Clear,110,2012-11-18 02:15:00
9:54 PM,39.2,30.2,70,30.50,10.0,ESE,6.9,-,N/A,,Clear,110,2012-11-18 02:54:00
10:15 PM,41.0,30.2,65,30.50,10.0,ESE,8.1,-,N/A,,Clear,120,2012-11-18 03:15:00
10:35 PM,39.2,32.0,75,30.50,10.0,ESE,8.1,-,N/A,,Clear,120,2012-11-18 03:35:00
10:54 PM,39.2,32.0,75,30.50,10.0,ESE,6.9,-,N/A,,Clear,120,2012-11-18 03:54:00
11:15 PM,39.2,32.0,75,30.50,7.0,ESE,6.9,-,N/A,,Clear,120,2012-11-18 04:15:00
11:35 PM,39.2,32.0,75,30.50,7.0,ESE,8.1,-,N/A,,Clear,120,2012-11-18 04:35:00
11:54 PM,39.2,30.2,70,30.50,10.0,SE,6.9,-,N/A,,Clear,130,2012-11-18 04:54:00